Flag for Germany Weather past 2 weeks in Oelde, North Rhine-Westphalia, Germany

Now
59 °F

Fog.


Feels Like: 58 °F
Forecast: 44 / 58 °F
Wind: 6 mph from West

Location: Paderborn / Lippstadt

Current Time: Sep 21, 2014 at 6:20:25 AM

Latest Report: Sep 21, 2014 at 5:50 AM


Visibility: 2 mi

Pressure: 29.95 "Hg

Humidity: 94%

Dew point: 57 °F

Location of OeldeLocation

Historic Weather in Oelde — Graph

°F

Oelde temperature yesterday

Maximum temperature yesterday: 68 °F (at 3:20 PM)
Minimum temperature yesterday: 55 °F (at 5:50 AM)
Average temperature yesterday: 62 °F

Past Weeks' High & Low Weather Summary

 TemperatureHumidityPressure
High75 °F (Sep 6, 2:20 PM)100% (Sep 6, 5:20 AM)30.24 "Hg (Sep 6, 5:20 AM)
Low45 °F (Sep 12, 3:50 AM)50% (Sep 17, 4:20 PM)29.86 "Hg (Sep 19, 4:50 AM)
Average60 °F86%30.03 "Hg
* Reported Sep 6 5:20 AM — Sep 21 5:20 AM, Oelde, Weather by CustomWeather, © 2014

Note: Actual official high and low records may vary slightly from our data, if they occured in-between our weather recording intervals... More about our weather records

Advertising

Oelde weather history for previous 24 hours

 ConditionsComfort  
Time TempWeatherWind HumidityBarometerVisibility
5:20 AM
Sep 21
59 °FFog.6 mph100%29.95 "Hg1 mi
4:50 AM59 °FFog.6 mph100%29.95 "Hg1 mi
4:20 AM59 °FFog.5 mph100%29.95 "Hg1 mi
11:20 PM
Sep 20
59 °FRain. Clear.2 mph94%29.95 "HgN/A
10:20 PM59 °FClear.2 mph94%29.98 "Hg10 mi
9:50 PM59 °FSprinkles. Passing clouds.5 mph100%29.98 "HgN/A
9:20 PM59 °FThunderstorms. Passing clouds.3 mph100%29.98 "HgN/A
8:50 PM63 °FThunderstorms. Passing clouds.8 mph88%29.95 "HgN/A
8:20 PM63 °FThunderstorms. Scattered clouds.7 mph100%29.95 "HgN/A
7:50 PM63 °FSunny.2 mph100%29.95 "Hg5 mi
3:20 PM68 °FPassing clouds.6 mph73%29.95 "Hg4 mi
2:50 PM66 °FPassing clouds.7 mph83%29.95 "Hg4 mi
2:20 PM66 °FFog.10 mph88%29.95 "Hg3 mi
1:50 PM66 °FFog.7 mph88%29.98 "Hg2 mi
1:20 PM66 °FFog.7 mph88%29.98 "Hg2 mi
12:50 PM66 °FFog.7 mph94%29.98 "Hg2 mi
12:20 PM66 °FFog.7 mph88%29.95 "Hg2 mi
11:50 AM66 °FFog.6 mph94%29.95 "Hg3 mi
11:20 AM64 °FFog.6 mph100%29.95 "Hg2 mi
10:50 AM64 °FFog.5 mph100%29.95 "Hg2 mi
10:20 AM64 °FFog.7 mph100%29.95 "Hg3 mi
9:50 AM63 °FFog.7 mph100%29.95 "Hg3 mi
9:20 AM63 °FFog.2 mph100%29.95 "Hg3 mi
8:50 AM63 °FFog.2 mph94%29.95 "Hg2 mi
8:20 AM61 °FFog.2 mph100%29.95 "Hg2 mi
7:50 AM61 °FFog.5 mph94%29.95 "Hg2 mi
7:20 AM59 °FFog.3 mph94%29.95 "Hg2 mi
6:50 AM57 °FFog.2 mph100%29.95 "Hg2 mi
6:20 AM57 °FFog.3 mph100%29.95 "Hg1 mi
Weather by CustomWeather, © 2014

See weather overviewHow to use our weather pages